Weather History for OIZJ - February, 2013

Change the Weather History Date:

Saturday, February 16, 2013

  Actual Average Record
Temperature  
Mean Temperature 70 °F -  
Max Temperature 77 °F - - ()
Min Temperature 64 °F - - ()
Cooling Degree Days 6    
Growing Degree Days 20 (Base 50)    
Moisture  
Dew Point 55 °F    
Average Humidity 56    
Maximum Humidity 73    
Minimum Humidity 44    
Precipitation  
Precipitation 0.00 in - - ()
Sea Level Pressure  
Sea Level Pressure 29.94 in    
Wind  
Wind Speed 9 mph ()    
Max Wind Speed 16 mph    
Max Gust Speed -    
Visibility 4.8 miles    
Events      
T = Trace of Precipitation, MM = Missing Value Source: Averaged Metar Reports

Daily Weather History Graph

Daily Weather History Graph

Search for Another Location

Airport or City:

Trip Planner

Search our weather history database for the weather conditions in past years. The results will help you decide how hot, cold, wet, or windy it might be!

Date:

Astronomy

Feb. 16, 2013 Rise Set
Actual Time 6:13 AM IRST 5:32 PM IRST
Civil Twilight 5:49 AM IRST 5:56 PM IRST
Nautical Twilight 5:22 AM IRST 6:23 PM IRST
Astronomical Twilight 4:55 AM IRST 6:50 PM IRST
Moon 9:52 AM IRST (2/16) 11:22 PM IRST (2/16)
Length of Visible Light 12h 06m
Length of Day
11h 19m
Waxing Crescent, 36% of the Moon is Illuminated
Feb 16
Waxing Crescent
Feb 18
First Quarter
Feb 25
Full
Mar 5
Last Quarter
Mar 11
New

Hourly Weather History & Observations

Time (IRST) Temp. Dew Point Humidity Pressure Visibility Wind Dir Wind Speed Gust Speed Precip Events Conditions
12:30 AM 69.8 °F 55.4 °F 60% 29.98 in 5.0 mi NNW 6.9 mph - N/A   Clear
3:30 AM 67 °F 55 °F 57% 30.01 in 4 mi NNW 11.2 mph - -   Haze
3:30 AM 68.0 °F 55.4 °F 64% 29.98 in 4.3 mi NNW 11.5 mph - N/A   Clear
5:30 AM 64.4 °F 55.4 °F 73% 29.98 in 4.3 mi NNE 4.6 mph - N/A   Clear
6:30 AM 64.4 °F 50.0 °F 59% 29.98 in 5.0 mi North 9.2 mph - N/A   Clear
7:20 AM 66.2 °F 50.0 °F 56% 29.98 in 5.0 mi North 6.9 mph - N/A   Clear
7:30 AM 66.2 °F 50.0 °F 56% 29.98 in 5.0 mi North 6.9 mph - N/A   Clear
8:20 AM 68.0 °F 46.4 °F 46% 30.01 in 5.0 mi NNE 6.9 mph - N/A   Clear
8:30 AM 68.0 °F 46.4 °F 46% 30.01 in 5.0 mi NNE 6.9 mph - N/A   Clear
9:20 AM 71.6 °F 53.6 °F 53% 30.01 in 5.0 mi NNW 6.9 mph - N/A   Clear
9:30 AM 71 °F 54 °F 44% 30.03 in 5 mi NNW 6.7 mph - -   Haze
9:30 AM 71.6 °F 53.6 °F 53% 30.01 in 5.0 mi NNW 6.9 mph - N/A   Clear
10:30 AM 71.6 °F 57.2 °F 60% 30.01 in 5.0 mi NW 11.5 mph - N/A   Clear
11:30 AM 73.4 °F 51.8 °F 47% 29.98 in 5.0 mi West 11.5 mph - N/A   Clear
12:30 PM 73.4 °F 53.6 °F 50% 29.98 in 5.0 mi West 9.2 mph - N/A   Clear
1:30 PM 75.2 °F 57.2 °F 53% 29.95 in 5.0 mi West 13.8 mph - N/A   Clear
2:20 PM 77.0 °F 59.0 °F 54% 29.92 in 5.0 mi West 16.1 mph - N/A   Clear
2:30 PM 77.0 °F 59.0 °F 54% 29.92 in 5.0 mi West 16.1 mph - N/A   Clear
3:30 PM 75 °F 60 °F 51% 29.91 in 5 mi West 15.7 mph - -   Blowing Sand
3:30 PM 75.2 °F 60.8 °F 61% 29.89 in 5.0 mi West 16.1 mph - N/A   Clear
4:20 PM 75.2 °F 57.2 °F 53% 29.89 in 5.0 mi West 13.8 mph - N/A   Clear
4:30 PM 75.2 °F 57.2 °F 53% 29.89 in 5.0 mi West 13.8 mph - N/A   Clear
5:20 PM 75.2 °F 57.2 °F 53% 29.89 in 5.0 mi West 13.8 mph - N/A   Clear
5:30 PM 75.2 °F 57.2 °F 53% 29.89 in 5.0 mi West 13.8 mph - N/A   Clear
6:20 PM 75.2 °F 57.2 °F 53% 29.89 in 3.7 mi West 13.8 mph - N/A   Clear
6:30 PM 75.2 °F 57.2 °F 53% 29.89 in 3.7 mi West 13.8 mph - N/A   Clear
7:20 PM 69.8 °F 57.2 °F 64% 29.89 in 5.0 mi WNW 6.9 mph - N/A   Clear
7:30 PM 69.8 °F 57.2 °F 64% 29.89 in 5.0 mi WNW 6.9 mph - N/A   Clear
8:20 PM 69.8 °F 57.2 °F 64% 29.89 in 5.0 mi West 11.5 mph - N/A   Clear
8:30 PM 69.8 °F 57.2 °F 64% 29.89 in 5.0 mi West 11.5 mph - N/A   Clear
9:20 PM 69.8 °F 57.2 °F 64% 29.89 in 5.0 mi West 11.5 mph - N/A   Clear
9:30 PM 70 °F 58 °F 56% 29.91 in 5 mi West 11.2 mph - -   Haze
9:30 PM 69.8 °F 57.2 °F 64% 29.89 in 5.0 mi West 11.5 mph - N/A   Clear